Temp
34 34 34 36 37 38 37 38 38 38 36 36 36 36 34 34 34 32 32 33 34 34 33 32 31 31 30 28 27 27 27 26 26 27 27 28 28 29 28 27 27 27 26 26
34 33 36 37 38 38 35 37 38 36 37 36 37 37 37 36 35 32 32 34 34 34 34 32 31 31 30 29 28 27 27 26 26 27 28 28 29 29 28 26 27 27 27 26
34 36 36 37 37 37 37 37 38 37 36 37 37 36 37 37 35 34 33 34 35 35 34 33 31 31 30 29 28 27 27 26 26 28 28 27 28 29 29 28 28 27 27 26
35 36 36 36 36 37 36 38 38 36 36 36 38 35 37 37 36 35 36 34 34 35 35 34 32 31 31 30 28 27 27 26 26 27 28 28 28 30 30 29 29 27 27 27
34 35 36 35 36 37 37 38 38 38 37 37 37 37 38 38 36 36 36 34 34 35 35 34 33 31 31 31 29 28 27 26 27 27 27 27 28 30 30 30 28 29 27 27
35 37 37 37 37 37 37 37 37 36 37 36 38 38 39 38 38 37 37 36 36 36 36 35 33 32 31 31 30 29 27 26 26 26 26 27 28 30 30 30 28 28 28 27
33 35 37 37 36 37 37 36 35 34 35 35 39 38 39 39 39 39 37 37 37 37 36 35 34 33 31 31 31 29 27 26 26 26 26 27 28 28 29 29 29 30 30 30
32 32 35 36 35 35 36 36 35 33 35 36 38 36 38 40 40 40 39 38 37 37 37 36 35 34 32 32 31 30 28 26 26 26 26 26 26 28 28 28 30 30 31 30
33 33 36 36 36 36 35 35 37 37 38 37 39 39 39 39 39 40 39 39 38 37 38 37 36 34 33 32 31 31 29 27 26 27 26 26 26 26 28 29 28 29 29 30
33 32 35 36 36 36 36 37 35 36 34 34 37 37 38 38 38 39 39 39 39 38 38 37 37 35 34 33 32 31 30 28 27 27 27 26 26 26 26 28 28 28 29 28
31 32 33 36 34 34 35 35 36 37 36 35 35 37 40 39 39 38 39 39 39 39 38 38 38 36 34 34 33 32 31 30 28 28 27 27 26 26 26 27 27 27 28 27
31 32 31 34 35 35 36 35 36 35 34 36 37 37 41 40 39 38 39 38 39 40 39 38 38 37 35 35 34 33 32 31 29 28 28 27 27 27 27 26 27 27 27 27
27 30 30 31 34 34 33 34 36 36 36 35 35 36 40 39 38 37 37 37 36 39 39 39 38 37 36 35 34 33 32 31 30 28 28 27 27 27 27 27 27 27 27 26
24 29 30 31 32 34 32 33 34 35 35 35 36 37 38 38 37 36 35 34 35 37 38 39 38 37 36 34 33 33 32 31 30 28 28 27 27 28 28 27 27 27 27 26
27 27 29 31 32 34 33 33 33 33 34 35 36 36 38 38 36 34 34 33 34 35 36 34 37 36 35 33 33 32 32 31 30 28 27 27 28 28 28 28 27 27 27 26
27 26 28 29 31 32 32 33 34 33 34 35 36 36 39 37 34 32 31 32 29 26 26 27 27 34 33 33 32 31 30 30 30 29 28 28 28 27 27 27 27 27 27 26
24 25 27 27 30 30 30 32 33 34 34 35 34 36 37 30 26 26 26 24 22 21 22 22 23 24 25 27 30 30 29 29 28 28 28 28 27 26 26 26 27 27 26 26
23 24 25 26 29 27 31 34 34 34 34 35 35 32 26 24 23 21 22 21 19 19 19 20 19 19 20 22 24 28 28 27 27 27 27 26 26 26 26 26 26 26 26 25
25 24 24 25 27 28 31 31 32 32 32 30 30 26 26 26 24 19 19 18 17 17 17 18 17 18 17 19 21 21 23 27 27 27 26 26 26 26 25 25 25 25 25 24
24 24 23 25 26 24 24 28 28 30 28 28 28 26 25 26 29 21 18 18 17 16 16 16 17 17 17 17 18 21 20 21 19 22 23 23 22 23 22 23 23 23 23 24
23 20 23 24 25 26 22 24 26 26 26 27 27 27 24 25 24 20 18 18 18 17 17 17 17 17 17 17 17 18 19 19 19 20 20 19 20 20 20 21 21 23 22 23
23 22 22 24 24 24 18 22 21 16 21 24 23 23 22 21 20 19 19 19 20 19 19 19 19 18 18 18 18 18 18 18 18 19 19 18 19 19 20 21 21 21 20 21
19 19 20 21 21 16 14 14 13 14 18 21 20 20 20 19 19 20 20 20 20 20 20 20 20 20 19 18 18 18 18 19 20 19 19 19 19 19 19 20 19 19 20 20
21 20 19 20 16 14 14 13 13 15 19 21 19 18 18 18 18 18 19 20 20 20 21 21 21 21 20 19 19 19 19 20 21 21 21 21 21 20 20 20 20 20 19 18
18 19 18 18 15 14 13 12 13 14 18 20 20 19 19 18 18 18 18 19 19 20 20 20 20 20 20 20 19 19 19 20 21 22 22 23 23 22 21 21 21 20 18 18
20 16 15 16 17 14 12 12 13 15 18 20 21 21 21 21 20 20 21 20 20 20 20 20 20 20 19 19 19 18 17 18 20 22 22 22 24 24 23 23 20 20 19 18
Height
752 762 763 746 735 726 736 733 737 736 738 752 753 751 755 753 759 769 770 772 774 777 783 791 797 802 808 814 819 823 826 831 834 836 837 837 839 840 843 845 848 852 854 856
754 761 741 733 729 732 747 742 740 744 738 747 739 747 737 742 751 763 770 766 769 772 778 787 793 799 805 811 817 822 825 830 833 835 835 836 838 840 842 846 848 851 853 856
753 741 733 734 737 741 741 741 737 744 743 738 742 750 738 733 742 750 756 758 761 766 771 781 790 796 801 808 814 819 824 829 830 832 834 837 837 839 840 844 847 851 853 855
741 728 732 739 740 733 745 721 727 748 748 760 730 767 740 733 743 744 743 754 758 760 766 775 785 792 797 804 811 817 822 826 829 831 833 836 837 836 839 841 843 849 852 854
740 733 733 739 736 727 736 718 727 730 742 740 742 753 727 726 743 741 740 744 750 750 759 767 777 787 793 799 807 813 819 824 827 829 831 835 835 835 837 838 843 846 850 852
731 711 717 721 719 721 722 728 729 740 738 760 735 735 726 721 723 725 730 733 736 742 750 760 772 781 789 795 802 809 816 821 824 828 829 832 832 832 835 838 843 846 847 850
736 725 712 711 726 720 728 739 763 772 765 765 720 732 721 710 709 707 718 725 729 732 741 753 764 772 782 787 795 803 810 817 821 825 828 830 832 833 835 839 841 841 842 843
747 750 719 708 721 731 730 731 749 780 765 749 717 745 724 697 694 695 700 712 722 727 731 743 754 764 773 781 788 795 803 811 817 821 824 828 830 832 833 837 837 840 838 842
737 732 706 706 713 719 727 738 717 732 721 732 714 710 700 699 703 698 702 705 714 721 724 733 744 756 767 775 781 786 794 804 810 815 820 824 828 829 831 833 836 839 839 840
725 738 705 702 710 712 716 710 744 731 761 761 725 725 723 707 710 703 705 706 707 713 720 726 735 747 759 768 776 783 789 797 803 808 815 820 823 827 830 831 833 834 837 840
730 730 718 699 714 723 722 723 719 720 727 746 749 726 686 699 696 704 701 699 701 706 712 719 727 736 750 760 768 775 782 790 797 802 808 814 819 823 828 829 831 834 835 838
733 727 733 709 695 702 704 717 717 734 746 725 724 721 670 678 689 697 699 701 696 696 703 713 721 730 741 751 761 768 776 783 791 798 803 808 814 817 821 824 827 831 833 835
748 736 747 729 705 704 721 713 709 711 713 730 740 726 677 684 693 698 704 707 706 696 699 706 716 725 734 746 754 762 771 778 786 794 799 803 808 812 816 819 823 826 828 831
762 742 737 735 722 709 729 722 714 715 729 724 718 713 696 698 704 706 712 713 708 704 702 707 714 722 732 743 751 758 766 773 780 787 793 799 803 807 810 814 817 821 823 825
751 754 740 725 709 704 707 718 718 718 714 723 712 709 694 695 697 711 715 717 716 716 713 719 719 727 734 744 750 756 762 769 775 781 788 792 797 802 806 809 812 815 818 819
751 757 743 733 716 712 713 702 706 713 710 709 706 706 683 692 703 722 728 726 736 746 744 741 739 732 739 745 751 757 762 767 772 776 782 787 792 796 800 804 807 809 812 815
770 762 747 744 723 721 727 709 701 703 701 705 719 703 689 714 735 743 746 752 759 762 760 756 755 756 757 754 754 757 762 767 770 774 778 782 787 792 796 799 803 804 806 810
768 765 756 747 725 743 705 688 693 698 696 694 698 709 734 741 749 755 757 761 767 770 772 767 763 766 767 764 762 758 760 765 769 772 776 780 783 785 790 793 797 799 802 805
755 761 762 755 735 726 698 698 702 701 706 706 713 731 735 739 744 762 765 769 772 775 775 773 771 765 778 768 770 765 759 760 764 768 773 778 782 783 787 792 793 798 800 802
752 757 764 746 739 755 740 706 707 700 729 715 720 734 741 740 739 762 769 771 775 778 778 777 769 783 774 772 776 769 766 765 766 767 773 777 779 777 785 788 788 791 798 799
756 771 761 753 746 730 740 721 720 737 744 722 728 734 746 747 751 764 771 775 777 779 780 780 780 780 777 778 771 770 770 772 771 772 775 777 778 778 786 787 783 769 787 794
746 755 758 750 746 746 759 746 758 770 751 742 747 748 754 760 765 770 773 774 775 776 778 779 780 781 773 775 778 770 775 776 773 772 774 779 782 784 783 779 781 775 775 785
766 759 761 753 755 777 778 780 779 775 763 756 759 761 764 768 770 771 774 775 776 777 776 776 776 777 779 779 777 781 781 775 776 774 774 776 776 775 775 778 780 782 785 792
747 756 762 759 776 785 785 786 784 776 765 762 767 770 772 774 776 778 778 779 778 778 776 776 777 778 781 782 782 781 780 778 778 777 775 775 777 779 780 780 783 784 789 796
773 769 770 772 780 788 791 793 789 781 773 769 770 774 776 778 781 782 784 784 783 782 782 782 782 782 784 785 784 783 783 780 778 778 778 777 778 779 781 783 788 789 791 790
765 779 784 779 776 784 791 794 791 785 779 776 773 773 775 775 777 780 781 782 783 785 785 784 784 785 787 787 787 788 788 787 784 782 781 781 777 778 778 778 780 784 785 784
Wind_Speed
18 16 19 21 21 21 9 14 10 7 6 9 12 8 14 15 16 17 16 19 18 18 18 21 20 20 21 21 20 19 17 17 16 15 13 12 12 11 10 12 12 10 10 9
21 23 23 21 20 17 6 15 9 7 11 10 9 11 14 18 15 18 17 21 20 19 19 21 22 21 23 23 22 20 19 18 16 15 11 9 11 13 15 12 11 10 10 10
26 24 24 22 22 19 20 19 12 7 7 13 12 13 14 17 17 24 25 20 20 21 21 20 23 24 24 25 23 22 20 20 18 14 11 7 3 11 10 10 10 10 11 10
26 27 24 24 23 21 21 18 16 5 9 11 12 7 9 16 18 20 23 20 20 21 21 21 24 25 25 26 24 22 21 21 19 16 14 13 14 12 15 13 16 13 12 11
28 28 28 25 26 22 19 16 20 16 13 16 19 7 9 17 17 20 20 25 23 24 23 24 25 28 27 26 26 24 23 22 21 19 13 17 18 14 13 12 15 11 12 10
29 24 26 27 23 23 21 21 13 15 15 15 18 13 11 17 17 19 21 21 23 23 24 23 29 29 28 27 26 25 24 22 21 20 15 18 17 11 15 11 11 14 14 12
26 32 25 27 23 20 26 20 14 13 13 14 19 14 11 7 5 13 21 22 23 24 24 23 24 29 31 31 29 27 26 24 24 22 21 19 16 14 12 13 13 13 14 14
22 22 32 23 23 25 26 24 17 20 14 16 18 9 8 5 3 13 16 22 23 22 23 26 25 32 34 32 32 30 29 27 25 24 23 22 19 19 15 15 15 13 11 10
21 27 21 25 24 24 25 25 25 24 18 13 15 18 10 8 9 9 11 20 24 24 22 24 27 33 33 34 34 34 32 30 29 28 25 24 22 21 21 20 19 14 9 9
22 21 28 30 22 25 28 21 21 18 23 21 17 12 13 19 12 11 14 14 18 22 22 22 23 33 35 35 35 33 32 31 30 30 28 26 25 24 20 18 17 19 13 12
15 19 21 24 25 26 21 23 18 21 20 17 16 13 9 5 14 11 8 11 16 19 22 21 21 32 35 35 35 34 33 32 30 30 29 27 28 26 25 20 18 19 16 14
18 18 15 20 19 25 23 24 25 15 24 17 17 12 9 19 14 7 6 6 7 18 21 21 20 27 31 32 33 33 32 31 29 28 27 28 27 27 27 25 22 21 20 18
13 16 15 21 21 16 21 26 25 23 19 23 16 16 11 10 10 8 9 4 4 11 17 20 20 19 26 29 29 31 28 31 29 28 28 28 28 27 29 28 26 24 22 21
8 16 16 17 18 18 25 24 28 25 19 19 20 19 14 15 16 9 10 7 3 3 12 15 16 15 21 24 25 27 29 29 28 29 29 28 27 28 29 28 27 26 25 25
10 16 20 26 26 23 21 25 27 25 25 24 21 20 19 14 13 15 11 9 7 5 3 8 13 12 17 21 22 22 24 26 28 28 30 29 29 27 27 27 27 27 27 27
16 12 16 21 21 26 22 19 26 29 28 25 25 21 16 8 18 15 10 12 15 13 12 13 16 4 9 13 17 18 20 22 23 26 28 26 25 26 25 25 25 27 27 29
14 14 15 15 17 21 24 22 18 20 26 23 21 21 13 18 16 12 10 11 10 9 9 8 10 10 11 10 14 16 20 20 21 21 22 22 22 23 24 24 25 25 26 27
14 12 10 16 17 25 16 20 21 18 16 21 23 6 14 14 14 13 10 10 9 8 6 7 9 10 11 8 9 8 16 16 18 19 19 20 22 24 24 23 23 22 23 24
16 12 12 15 17 13 8 4 10 13 13 7 11 10 10 12 13 12 9 9 8 6 5 5 7 11 6 6 5 6 4 14 17 17 16 19 19 18 15 14 14 16 20 22
16 13 10 16 19 10 16 13 9 5 5 5 3 6 4 4 7 5 7 7 8 8 5 6 11 1 8 8 2 5 10 11 13 7 7 6 6 11 6 13 9 5 21 22
12 10 16 16 14 3 10 17 11 12 3 9 7 6 4 3 8 13 9 7 7 7 6 5 7 3 7 4 11 11 7 7 5 4 4 5 1 7 9 12 6 12 27 27
12 11 11 18 19 15 16 4 9 6 11 9 9 3 10 11 12 11 8 7 6 7 7 7 7 6 10 6 8 13 9 6 6 6 6 5 4 1 3 4 12 6 19 22
6 5 5 4 2 6 8 7 7 11 7 9 9 10 11 10 9 8 7 6 6 6 5 5 6 9 9 8 9 9 4 6 5 8 8 7 5 4 4 4 6 12 22 20
9 9 3 4 8 6 8 6 8 10 6 12 11 11 11 12 8 8 7 6 6 6 7 9 10 11 11 10 9 9 7 4 3 5 7 9 8 8 4 5 4 3 4 1
3 6 4 3 4 6 7 7 7 10 7 10 11 13 12 12 10 8 7 6 7 5 6 7 8 8 8 9 11 12 11 10 6 6 6 6 8 7 10 6 3 5 3 1
3 2 2 3 9 6 5 3 6 7 9 5 10 11 10 9 9 7 8 7 6 5 4 4 4 4 5 5 5 6 7 8 9 7 7 8 4 7 8 9 9 6 5 7
Wind_Direction
207 222 224 230 236 245 318 290 206 148 96 204 203 242 158 171 202 172 196 186 185 180 176 172 175 171 170 168 171 169 171 158 171 166 183 165 173 173 140 119 124 151 152 163
225 224 224 232 238 252 258 267 236 142 150 239 206 211 188 167 194 178 203 184 188 186 174 173 178 175 174 171 173 174 176 170 180 177 174 202 187 182 156 173 148 171 164 161
225 218 229 233 239 236 208 233 227 245 142 226 267 247 216 171 185 174 197 194 192 190 178 177 182 181 178 175 177 177 180 176 184 179 174 190 242 159 157 134 159 169 167 170
230 237 214 232 231 234 235 223 264 185 239 263 192 268 193 174 184 194 196 189 192 193 188 177 182 187 188 181 183 179 183 181 189 181 170 186 196 172 185 182 157 158 170 174
232 226 234 219 231 230 250 245 223 240 259 253 220 246 186 171 189 191 202 179 199 191 189 183 185 187 191 188 184 185 188 189 191 200 191 174 197 190 177 187 150 172 174 187
243 233 234 231 223 229 238 250 236 252 239 249 246 237 193 190 191 186 191 205 196 192 188 189 186 183 192 190 189 187 184 193 196 195 208 195 210 206 186 201 167 196 184 189
233 239 223 235 225 220 229 226 232 222 228 239 236 226 231 107 159 186 182 196 198 196 188 189 185 185 191 191 190 189 184 194 197 197 202 203 205 215 187 179 203 204 200 190
224 222 227 211 231 222 217 229 229 219 221 228 228 227 245 236 312 170 185 186 192 199 190 187 191 190 190 192 189 192 186 190 201 202 203 205 209 204 203 189 209 218 215 191
241 230 220 230 220 238 223 223 240 252 242 256 214 197 170 146 198 169 199 178 188 195 199 191 189 192 190 194 192 192 185 192 198 204 205 203 208 218 206 207 212 220 235 195
258 268 225 215 213 228 241 216 224 240 247 248 239 200 228 181 203 193 184 185 189 192 198 194 194 187 194 197 197 197 195 193 198 201 202 205 204 215 225 219 199 218 203 234
262 258 270 208 200 219 219 234 221 237 234 246 244 233 183 133 171 164 181 198 195 193 195 198 196 190 192 196 198 198 198 195 200 200 199 205 205 207 217 215 215 216 213 206
253 259 245 227 210 216 235 215 233 232 228 240 257 251 207 177 142 137 215 23 300 195 195 194 192 194 189 197 197 197 199 198 198 199 198 199 204 205 208 215 215 215 215 215
339 249 251 250 197 203 228 241 232 234 238 230 229 241 100 87 81 111 59 37 250 239 192 188 189 189 186 194 196 198 196 201 198 200 201 201 204 207 213 212 216 213 213 212
288 264 254 244 230 211 216 236 237 231 236 240 226 232 167 164 154 136 87 40 82 255 180 183 185 182 179 188 196 194 193 204 198 200 202 203 205 210 213 216 214 219 215 212
281 262 257 259 268 258 214 216 237 236 236 237 232 231 237 196 112 90 87 69 84 127 126 352 173 175 179 186 198 196 198 202 200 195 202 206 208 211 214 213 219 218 218 218
306 295 271 263 255 258 269 243 212 227 238 239 246 246 215 128 88 81 67 86 54 29 25 25 16 159 182 191 197 200 206 200 203 196 201 207 205 209 216 219 217 220 221 222
282 275 276 251 245 255 246 239 237 223 227 237 235 244 253 97 85 64 67 67 62 39 13 31 26 20 5 350 208 204 202 205 207 210 203 206 206 211 216 218 224 224 224 226
252 267 284 274 260 232 235 223 242 244 230 227 232 87 64 90 91 79 61 80 70 57 25 23 40 20 355 339 334 236 202 202 203 204 207 210 209 211 214 218 225 231 232 233
238 250 265 263 255 256 187 171 227 232 192 38 63 83 102 120 110 65 68 81 87 64 49 43 68 44 324 40 318 20 23 191 197 192 197 211 210 211 212 224 235 249 248 242
192 250 251 261 262 201 315 67 3 327 194 91 38 109 133 184 245 111 109 95 99 97 68 37 73 64 51 40 47 79 73 87 69 98 143 127 152 135 133 193 195 286 269 253
205 205 226 235 261 149 37 356 327 214 83 105 131 153 167 230 49 119 120 119 113 112 120 124 108 134 91 73 67 78 79 70 83 93 86 52 326 247 244 256 273 221 270 262
221 191 209 240 245 244 3 315 317 348 342 59 64 55 93 104 109 124 133 124 118 101 102 104 97 78 58 61 103 75 72 88 91 97 112 117 138 177 250 288 285 284 300 278
282 10 323 348 15 58 25 26 356 313 276 81 80 80 99 109 114 119 126 119 102 99 99 116 103 92 79 59 61 83 37 55 83 103 105 103 97 79 72 200 237 238 240 273
320 29 281 234 66 66 56 5 355 347 30 96 91 104 109 100 87 86 94 94 80 72 73 86 81 75 73 68 69 72 43 14 98 89 100 129 99 126 146 187 213 256 74 286
296 310 1 148 104 119 69 27 346 351 79 76 100 106 109 101 99 96 86 72 66 55 53 49 27 47 60 57 59 57 52 35 57 74 89 134 130 119 132 122 129 105 97 228
229 121 13 355 112 82 89 15 358 15 69 85 101 88 87 103 108 138 119 124 107 87 61 30 28 15 7 356 14 20 23 29 30 56 37 10 49 116 115 118 147 107 83 73